TimeHST,TemperatureF,Dew PointF,Humidity,Sea Level PressureIn,VisibilityMPH,Wind Direction,Wind SpeedMPH,Gust SpeedMPH,PrecipitationIn,Events,Conditions,WindDirDegrees,DateUTC
12:56 AM,70.0,63.9,81,29.96,10.0,ENE,6.9,-,N/A,,Clear,60,2013-09-16 10:56:00
1:56 AM,70.0,63.9,81,29.96,10.0,NE,4.6,-,N/A,,Clear,50,2013-09-16 11:56:00
2:56 AM,70.9,65.8,84,29.96,10.0,ENE,6.9,-,N/A,,Clear,60,2013-09-16 12:56:00
3:56 AM,68.9,65.8,90,29.96,10.0,NE,5.8,-,N/A,,Clear,50,2013-09-16 13:56:00
4:56 AM,68.9,63.9,84,29.97,10.0,East,8.1,-,N/A,,Clear,90,2013-09-16 14:56:00
5:56 AM,70.0,66.9,90,29.99,10.0,NE,11.5,-,N/A,,Clear,40,2013-09-16 15:56:00
6:56 AM,72.9,66.9,82,29.99,10.0,ENE,9.2,-,N/A,,Clear,60,2013-09-16 16:56:00
7:56 AM,79.0,65.8,64,30.00,10.0,ENE,10.4,-,N/A,,Clear,60,2013-09-16 17:56:00
8:56 AM,79.0,65.8,64,30.02,10.0,NE,12.7,-,N/A,,Mostly Cloudy,40,2013-09-16 18:56:00
9:56 AM,79.9,64.9,60,30.03,10.0,ENE,8.1,-,N/A,,Scattered Clouds,70,2013-09-16 19:56:00
10:56 AM,82.4,66.2,58,30.09,10.0,NNE,12.7,18.4,N/A,,Scattered Clouds,30,2013-09-16 20:56:00
11:56 AM,84.9,65.8,53,30.00,10.0,NNE,11.5,18.4,N/A,,Scattered Clouds,20,2013-09-16 21:56:00
12:56 PM,81.9,66.9,60,29.99,10.0,NNE,21.9,27.6,N/A,,Partly Cloudy,30,2013-09-16 22:56:00
1:56 PM,82.9,66.9,58,29.96,10.0,NE,21.9,-,N/A,,Partly Cloudy,40,2013-09-16 23:56:00
2:56 PM,84.9,64.9,51,29.95,10.0,NE,25.3,28.8,N/A,,Clear,40,2013-09-17 00:56:00
3:56 PM,81.0,66.9,62,29.96,10.0,NE,24.2,28.8,N/A,,Scattered Clouds,40,2013-09-17 01:56:00
4:56 PM,81.0,64.9,58,29.97,10.0,NE,19.6,-,N/A,,Clear,40,2013-09-17 02:56:00
5:56 PM,77.0,65.8,68,29.97,10.0,NE,23.0,-,N/A,,Clear,50,2013-09-17 03:56:00
6:56 PM,74.8,66.9,76,30.00,10.0,NE,16.1,-,N/A,,Clear,40,2013-09-17 04:56:00
7:56 PM,73.9,68.0,82,30.00,10.0,NE,15.0,-,N/A,,Clear,40,2013-09-17 05:56:00
8:56 PM,72.9,68.0,85,30.03,10.0,NE,15.0,-,N/A,,Clear,50,2013-09-17 06:56:00
9:56 PM,72.9,66.9,82,30.04,10.0,NE,16.1,-,N/A,,Clear,40,2013-09-17 07:56:00
10:56 PM,73.4,66.2,78,30.10,10.0,ENE,11.5,-,N/A,,Scattered Clouds,70,2013-09-17 08:56:00
11:56 PM,72.9,66.9,82,30.02,10.0,ENE,12.7,-,N/A,,Clear,70,2013-09-17 09:56:00